Flag for Switzerland Weather past 2 weeks in Wallisellen, Zurich, Switzerland

Now
49 °F

Cool.


Feels Like: 48 °F
Forecast: 39 / 70 °F
Wind: 3 mph from West

Location: Zurich Town / Ville.


UV Index: 3 (Moderate)

Visibility: N/A


Pressure: 29.67 "Hg

Humidity: 84%

Dew point: 44 °F

Location of WallisellenLocation

Historic Weather in Wallisellen

°F

Wallisellen temperature yesterday

Maximum temperature yesterday: 59 °F (at 5:00 PM)
Minimum temperature yesterday: 37 °F (at 4:00 AM)
Average temperature yesterday: 48 °F

Past Weeks' High & Low Weather Summary

 TemperatureHumidityPressure
High67 °F (Apr 11, 5:00 PM)97% (Apr 6, 9:00 AM)30.34 "Hg (Apr 6, 9:00 AM)
Low35 °F (Apr 18, 9:00 PM)25% (Apr 17, 4:00 PM)29.62 "Hg (Apr 20, 6:00 PM)
Average50 °F63%30.06 "Hg
* Reported Apr 6 9:00 AM — Apr 21 9:00 AM, Wallisellen, Weather by CustomWeather, © 2014

Note: Actual official high and low records may vary slightly from our data, if they occured in-between our weather recording intervals... More about our weather records

Advertising

Historic Weather Conditions — Data for Previous 24 hours

 ConditionsComfort  
Time TempWeatherWind HumidityBarometerVisibility
9:00 AM
Apr 21
48 °FCool.3 mph86%29.67 "HgN/A
8:00 AM47 °FLight rain. Overcast.2 mph89%29.67 "Hg3 mi
7:00 AM47 °FCool.3 mph88%29.67 "HgN/A
6:00 AM47 °FCool.1 mph90%29.66 "HgN/A
5:00 AM48 °FCool.No wind86%29.65 "HgN/A
4:00 AM47 °FCool.2 mph87%29.65 "HgN/A
3:00 AM48 °FCool.1 mph83%29.65 "HgN/A
2:00 AM47 °FCool.1 mph83%29.66 "HgN/A
1:00 AM47 °FCool.1 mph83%29.67 "HgN/A
12:00 AM48 °FCool.1 mph81%29.67 "HgN/A
11:00 PM
Apr 20
49 °FCool.3 mph78%29.67 "HgN/A
10:00 PM49 °FCool.5 mph80%29.67 "HgN/A
9:00 PM52 °FCool.2 mph74%29.65 "HgN/A
8:00 PM55 °FOvercast.3 mph63%29.64 "Hg5 mi
7:00 PM57 °FRefreshingly cool.3 mph57%29.63 "HgN/A
6:00 PM58 °FRefreshingly cool.5 mph54%29.62 "HgN/A
5:00 PM59 °FRefreshingly cool.5 mph52%29.62 "HgN/A
4:00 PM58 °FRefreshingly cool.6 mph50%29.64 "HgN/A
3:00 PM58 °FRefreshingly cool.5 mph51%29.65 "HgN/A
2:00 PM56 °FHaze.3 mph55%29.67 "Hg6 mi
1:00 PM54 °FCool.2 mph59%29.69 "HgN/A
12:00 PM52 °FCool.5 mph60%29.71 "HgN/A
11:00 AM47 °FCool.1 mph66%29.73 "HgN/A
Weather by CustomWeather, © 2014

See weather overview